Regional Weather Roundup
Issued by NWS

Home | Current Version | Previous Version | Text Only | Print | Product List | Glossary Off
Versions: 1 2 3 4 5 6 7 8 9 10 11 12 13 14 15 16 17 18 19 20 21 22 23 24 25 26 27 28 29 30 31 32 33 34 35 36 37 38 39 40 41 42 43 44 45 46 47 48 49 50

000
ASUS45 KABQ 011910
RWRNM
WEATHER ROUNDUP FOR NEW MEXICO
NATIONAL WEATHER SERVICE ALBUQUERQUE NM
100 PM MDT FRI AUG 01 2014

NOTE: "FAIR" MEANS FEW OR NO CLOUDS BELOW 12,000 FEET AGL WITH NO
       SIGNIFICANT WEATHER OR OBSTRUCTIONS TO VISION.

      THIS PRODUCT IS RELEASED AS TWO VERSIONS.  ONE VERSION NEAR
      THE TOP OF THE HOUR CONTAINING PRELIMINARY DATA FROM ALBUQUERQUE
      AND OTHER STATIONS.  A FINAL VERSION WITH ADDITIONAL DATA IS
      ISSUED ABOUT 10 MINUTES AFTER THE HOUR.

NMZ501-503-504-510>518-012000-
NORTHWEST PLATEAU/NORTHCENTRAL MOUNTAINS

CITY           SKY/WX    TMP DP  RH WIND       PRES   REMARKS
FARMINGTON     SUNNY     78  52  40 W5        30.22F
LOS ALAMOS     CLOUDY    67  54  63 SE6       30.38F
SANTA FE         N/A     71  54  54 S7        30.32F
TAOS           MOSUNNY   68  54  60 W5        30.37S
ANGEL FIRE     MOCLDY    64  52  65 SE6       30.44S

$$
NMZ402-403-502-505>509-012000-
WESTCENTRAL MOUNTAINS/SOUTHWEST MOUNTAINS

CITY           SKY/WX    TMP DP  RH WIND       PRES   REMARKS
GALLUP         MOSUNNY   78  49  35 E7        30.29F
SILVER CITY    MOSUNNY   75  57  53 SW5       30.26F

$$
NMZ407-409-411-412-012000-
SOUTHERN DESERTS

CITY           SKY/WX    TMP DP  RH WIND       PRES   REMARKS
LORDSBURG      FAIR      81  59  47 SE5       30.17F
DEMING         CLOUDY    75  62  64 E6        30.19F
LAS CRUCES     CLOUDY    73  62  67 NE12      30.23S
HOLLOMAN AFB   PTSUNNY   73  63  68 CALM      30.20F
ALAMOGORDO     PTSUNNY   73  63  68 NW8       30.22F
T OR C         CLOUDY    75  60  59 SE3       30.23F

$$
NMZ519>523-012000-
CENTRAL VALLEYS/CENTRAL HIGHLANDS

CITY           SKY/WX    TMP DP  RH WIND       PRES   REMARKS
ALBUQUERQUE    MOSUNNY   77  54  44 W6        30.27F
DOUBLE EAGLE   PTSUNNY   72  55  56 SW3       30.31S
MORIARTY ARPT  FAIR      70  55  59 S9        30.35S
CLINES CORNERS CLOUDY    65  54  67 SE7       30.37F
BELEN          FAIR      73  54  51 CALM      30.27F
SOCORRO        FAIR      76  58  53 SE3       30.24F

$$
NMZ524>526-539-540-012000-
SOUTHCENTRAL MOUNTAINS

CITY           SKY/WX    TMP DP  RH WIND       PRES   REMARKS
RUIDOSO        LGT RAIN  61  57  88 SE7       30.39F

$$
NMZ527>531-012000-
NORTHEAST HIGHLANDS/NORTHEAST PLAINS

CITY           SKY/WX    TMP DP  RH WIND       PRES   REMARKS
LAS VEGAS      PTSUNNY   67  56  67 S14       30.37F
RATON          CLOUDY    69  56  62 S8        30.32F
CLAYTON        PTSUNNY   74  50  42 S8        30.28F

$$
NMZ532>537-012000-
EASTCENTRAL PLAINS

CITY           SKY/WX    TMP DP  RH WIND       PRES   REMARKS
TUCUMCARI      PTSUNNY   77  53  43 VRB3      30.24F
CANNON AFB     CLOUDY    71  55  56 CALM      30.27F
CLOVIS AIRPORT NOT AVBL

$$
NMZ028-029-538-012000-
SOUTHEAST PLAINS

CITY           SKY/WX    TMP DP  RH WIND       PRES   REMARKS
ROSWELL        CLOUDY    75  62  64 S7        30.21F
ARTESIA        LGT RAIN  68  66  94 S9        30.22S
CARLSBAD       CLOUDY    73  63  70 S7        30.19S
HOBBS          PTSUNNY   73  59  60 S6        30.23F


$$


USA.gov is the U.S. government's official web portal to all federal, state and local government web resources and services.